FW3005 Weather Reports


time (UTC)temp
C
wind
direction
speed
KPH
gust
KPH
rain 1hr
cm
rain 24hr
cm
rain mn
cm
humidity
%
barometer
mb
20260503213002 17 218 6.4 19.3 0.00 0.28 0.28 51 1008.6
20260503211601 17 209 6.4 16.1 0.00 0.28 0.28 50 1008.8
20260503210057 16 188 8.0 17.7 0.00 0.28 0.28 50 1009.1
20260503204602 17 214 9.7 19.3 0.00 0.28 0.28 50 1009.3
20260503203056 16 224 6.4 20.9 0.00 0.28 0.28 51 1009.3
20260503201555 17 216 12.9 24.1 0.00 0.28 0.28 49 1009.3
20260503200053 17 241 9.7 22.5 0.00 0.28 0.28 51 1009.5
20260503194548 16 181 9.7 30.6 0.00 0.28 0.28 54 1010.0
20260503193055 15 207 6.4 20.9 0.00 0.28 0.28 66 1010.1
20260503191543 13 199 8.0 25.7 0.08 0.28 0.28 71 1010.5
20260503190058 12 169 9.7 17.7 0.15 0.28 0.28 75 1010.8
20260503184535 10 152 6.4 17.7 0.18 0.28 0.28 81 1011.2
20260503183037 9 212 4.8 17.7 0.18 0.28 0.28 82 1011.6
20260503181529 9 170 6.4 12.9 0.13 0.20 0.20 82 1012.4
20260503180037 10 216 1.6 11.3 0.05 0.13 0.13 79 1013.8
20260503174525 10 218 3.2 8.0 0.08 0.10 0.10 80 1013.8
20260503173024 9 148 1.6 9.7 0.10 0.10 0.10 83 1014.0
20260503171534 9 209 1.6 6.4 0.08 0.08 0.08 81 1014.3
20260503140118 11 193 1.6 9.7 0.00 0.00 0.00 63 1015.4
20260503081533 6 149 0.0 1.6 0.00 0.03 0.00 65 1016.1
20260503071513 6 146 0.0 4.8 0.00 0.03 0.00 64 1016.1
20260503060106 5 198 0.0 1.6 0.00 0.03 0.00 68 1016.8
20260503054556 5 210 0.0 1.6 0.00 0.03 0.00 71 1017.0
20260503053051 5 207 0.0 0.0 0.00 0.03 0.00 73 1017.1
20260503051557 5 207 0.0 0.0 0.00 0.03 0.00 73 1017.2
20260503050048 5 207 0.0 1.6 0.00 0.03 0.00 74 1017.3
20260503044547 5 207 0.0 1.6 0.00 0.03 0.03 72 1017.4
20260503043050 5 208 0.0 0.0 0.00 0.03 0.03 72 1017.4
20260503041546 5 208 0.0 1.6 0.00 0.03 0.03 72 1017.4
20260503040048 5 209 0.0 0.0 0.00 0.03 0.03 72 1017.6
20260503034545 5 199 0.0 0.0 0.00 0.03 0.03 73 1017.6
20260503033047 5 198 0.0 0.0 0.00 0.03 0.03 72 1017.6
20260503031544 6 198 0.0 0.0 0.00 0.03 0.03 71 1017.6
20260503030044 6 198 0.0 0.0 0.00 0.03 0.03 70 1017.8
20260503024543 6 198 0.0 0.0 0.00 0.03 0.03 67 1017.8
20260503023042 7 198 0.0 0.0 0.00 0.03 0.03 66 1017.7
20260503021548 7 198 0.0 0.0 0.00 0.03 0.03 64 1017.7
20260503020051 7 198 0.0 0.0 0.00 0.03 0.03 61 1017.6
20260503014607 8 198 0.0 1.6 0.00 0.03 0.03 60 1017.5
20260503013042 8 248 0.0 0.0 0.00 0.03 0.03 58 1017.3
20260503011547 9 248 0.0 0.0 0.00 0.03 0.03 56 1017.3
20260503010050 10 248 0.0 0.0 0.00 0.03 0.03 52 1017.3
20260503004552 11 248 0.0 1.6 0.00 0.03 0.03 49 1017.3
20260503003038 11 256 0.0 3.2 0.00 0.03 0.03 47 1017.3
20260503001539 12 298 1.6 9.7 0.00 0.03 0.03 46 1017.4
20260503000041 12 276 1.6 6.4 0.00 0.03 0.03 42 1017.3
20260502234542 13 333 0.0 6.4 0.00 0.03 0.03 44 1017.5
20260502233034 12 273 0.0 8.0 0.00 0.03 0.03 44 1017.6
20260502231537 12 253 1.6 8.0 0.00 0.03 0.03 44 1017.6
20260502230034 12 280 0.0 3.2 0.00 0.03 0.03 42 1017.7
20260502224532 12 34 0.0 4.8 0.00 0.03 0.03 42 1017.8
20260502223036 12 3 1.6 8.0 0.00 0.03 0.03 44 1017.9
20260502221531 12 319 0.0 9.7 0.00 0.03 0.03 43 1017.9
20260502220030 12 316 3.2 12.9 0.00 0.03 0.03 42 1017.9
20260502214529 13 214 6.4 14.5 0.00 0.03 0.03 39 1017.9